When you browse on this site, cookies collect data to enhance your experience and personalize the content and advertising you see.
Visit our Privacy Policy to learn more. By continuing to use the site, you agree to this use of cookies and data.
  • In Hungary
  • List of Countries
  • For 7 days
  • Water Temperature
  • Satellite Maps
  • Weather Map
  • News
  • Weather Widgets
  • user-avatar
    Login

    Hourly Weather Tvereckiy

    Today, 24 May, Friday

    Time Temperature Precipitation Wind Pressure Humidity
    00:00 +6°C° 0 mm 2 mps 745 mmHg 89%
    01:00 +5°C° 0 mm 2 mps 745 mmHg 90%
    02:00 +5°C° 0 mm 1 mps 745 mmHg 89%
    03:00 +5°C° 0 mm 2 mps 745 mmHg 84%
    04:00 +5°C° 0 mm 2 mps 745 mmHg 79%
    05:00 +4°C° 0 mm 3 mps 746 mmHg 74%
    06:00 +7°C° 0 mm 3 mps 746 mmHg 68%
    07:00 +8°C° 0 mm 3 mps 746 mmHg 62%
    08:00 +10°C° 0 mm 3 mps 746 mmHg 56%
    09:00 +11°C° 0 mm 3 mps 746 mmHg 53%
    10:00 +13°C° 0 mm 3 mps 746 mmHg 50%
    11:00 +14°C° 0 mm 3 mps 746 mmHg 47%
    12:00 +16°C° 0 mm 3 mps 746 mmHg 46%
    13:00 +16°C° 0 mm 3 mps 746 mmHg 45%
    14:00 +17°C° 0 mm 3 mps 746 mmHg 45%
    15:00 +17°C° 0 mm 3 mps 745 mmHg 47%
    16:00 +17°C° 0 mm 3 mps 745 mmHg 50%
    17:00 +17°C° 0 mm 3 mps 745 mmHg 52%
    18:00 +16°C° 0 mm 2 mps 745 mmHg 61%
    19:00 +14°C° 0 mm 2 mps 745 mmHg 69%
    20:00 +12°C° 0 mm 2 mps 745 mmHg 77%
    21:00 +12°C° 0 mm 2 mps 745 mmHg 78%
    22:00 +10°C° 0 mm 2 mps 744 mmHg 79%
    23:00 +10°C° 0 mm 2 mps 744 mmHg 80%

    Tomorrow, 25 May, Saturday

    Time Temperature Precipitation Wind Pressure Humidity
    00:00 +10°C° 0 mm 3 mps 744 mmHg 83%
    01:00 +10°C° 0 mm 3 mps 744 mmHg 85%
    02:00 +11°C° 0 mm 3 mps 744 mmHg 88%
    03:00 +11°C° 0 mm 3 mps 744 mmHg 88%
    04:00 +11°C° 0 mm 3 mps 743 mmHg 89%
    05:00 +11°C° 0 mm 3 mps 743 mmHg 89%
    06:00 +11°C° 0 mm 3 mps 743 mmHg 88%
    07:00 +12°C° 0 mm 3 mps 742 mmHg 87%
    08:00 +12°C° 0 mm 3 mps 742 mmHg 85%
    09:00 +13°C° 0.1 mm 4 mps 742 mmHg 85%
    10:00 +14°C° 0.1 mm 4 mps 741 mmHg 84%
    11:00 +15°C° 0.1 mm 4 mps 741 mmHg 83%
    12:00 +15°C° 0.1 mm 4 mps 741 mmHg 85%
    13:00 +15°C° 0.1 mm 4 mps 740 mmHg 86%
    14:00 +16°C° 0.1 mm 3 mps 740 mmHg 88%
    15:00 +16°C° 0.3 mm 3 mps 739 mmHg 88%
    16:00 +17°C° 0.3 mm 3 mps 739 mmHg 89%
    17:00 +17°C° 0.3 mm 3 mps 738 mmHg 89%
    18:00 +16°C° 0.3 mm 2 mps 738 mmHg 92%
    19:00 +16°C° 0.3 mm 2 mps 738 mmHg 94%
    20:00 +15°C° 0.3 mm 2 mps 737 mmHg 97%
    21:00 +15°C° 1 mm 2 mps 737 mmHg 97%
    22:00 +14°C° 1 mm 2 mps 737 mmHg 97%
    23:00 +14°C° 1 mm 2 mps 737 mmHg 96%

    Day after tomorrow, 26 May, Sunday

    Time Temperature Precipitation Wind Pressure Humidity
    00:00 +13°C° 0 mm 2 mps 737 mmHg 97%
    01:00 +12°C° 0 mm 2 mps 737 mmHg 97%
    02:00 +10°C° 0 mm 2 mps 737 mmHg 97%
    03:00 +10°C° 0 mm 2 mps 738 mmHg 96%
    04:00 +12°C° 0 mm 2 mps 738 mmHg 95%
    05:00 +12°C° 0 mm 2 mps 738 mmHg 95%
    06:00 +13°C° 0 mm 2 mps 738 mmHg 87%
    07:00 +13°C° 0 mm 3 mps 739 mmHg 79%
    08:00 +14°C° 0 mm 3 mps 739 mmHg 72%
    09:00 +16°C° 0 mm 3 mps 739 mmHg 65%
    10:00 +17°C° 0 mm 3 mps 739 mmHg 59%
    11:00 +18°C° 0 mm 3 mps 739 mmHg 53%
    12:00 +18°C° 0 mm 3 mps 739 mmHg 52%
    13:00 +19°C° 0 mm 3 mps 739 mmHg 50%
    14:00 +19°C° 0 mm 3 mps 739 mmHg 49%
    15:00 +19°C° 0 mm 2 mps 739 mmHg 49%
    16:00 +19°C° 0 mm 2 mps 738 mmHg 49%
    17:00 +19°C° 0 mm 2 mps 738 mmHg 49%
    18:00 +18°C° 0 mm 1 mps 738 mmHg 56%
    19:00 +15°C° 0 mm 1 mps 738 mmHg 64%
    20:00 +12°C° 0 mm 0 mps 738 mmHg 71%
    21:00 +13°C° 0 mm 1 mps 738 mmHg 73%
    22:00 +13°C° 0 mm 2 mps 738 mmHg 75%
    23:00 +13°C° 0 mm 2 mps 738 mmHg 76%

    27 May, Monday

    Time Temperature Precipitation Wind Pressure Humidity
    00:00 +12°C° 0 mm 2 mps 738 mmHg 79%
    01:00 +11°C° 0 mm 3 mps 737 mmHg 82%
    02:00 +11°C° 0 mm 3 mps 737 mmHg 85%
    03:00 +11°C° 0.2 mm 3 mps 738 mmHg 87%
    04:00 +10°C° 0.2 mm 3 mps 738 mmHg 89%
    05:00 +10°C° 0.2 mm 4 mps 738 mmHg 91%
    06:00 +11°C° 0 mm 4 mps 739 mmHg 83%
    07:00 +11°C° 0 mm 4 mps 739 mmHg 75%
    08:00 +12°C° 0 mm 5 mps 740 mmHg 67%
    09:00 +13°C° 0 mm 5 mps 740 mmHg 62%
    10:00 +14°C° 0 mm 5 mps 740 mmHg 57%
    11:00 +15°C° 0 mm 5 mps 741 mmHg 51%
    12:00 +15°C° 0 mm 5 mps 741 mmHg 53%
    13:00 +14°C° 0 mm 5 mps 742 mmHg 56%
    14:00 +14°C° 0 mm 4 mps 742 mmHg 58%
    15:00 +15°C° 0 mm 4 mps 742 mmHg 56%
    16:00 +16°C° 0 mm 3 mps 742 mmHg 54%
    17:00 +17°C° 0 mm 3 mps 742 mmHg 53%
    18:00 +16°C° 0 mm 2 mps 742 mmHg 60%
    19:00 +14°C° 0 mm 2 mps 743 mmHg 68%
    20:00 +13°C° 0 mm 1 mps 743 mmHg 75%
    21:00 +13°C° 0 mm 2 mps 743 mmHg 79%
    22:00 +12°C° 0 mm 2 mps 743 mmHg 82%
    23:00 +11°C° 0 mm 3 mps 743 mmHg 86%

    28 May, Tuesday

    Time Temperature Precipitation Wind Pressure Humidity
    00:00 +12°C° 0.2 mm 3 mps 742 mmHg 87%
    01:00 +12°C° 0.2 mm 3 mps 742 mmHg 88%
    02:00 +13°C° 0.2 mm 4 mps 742 mmHg 88%
    03:00 +13°C° 0.1 mm 4 mps 742 mmHg 88%
    04:00 +14°C° 0.1 mm 4 mps 742 mmHg 88%
    05:00 +14°C° 0.1 mm 4 mps 742 mmHg 87%
    06:00 +15°C° 0 mm 4 mps 743 mmHg 84%
    07:00 +18°C° 0 mm 4 mps 743 mmHg 80%
    08:00 +19°C° 0 mm 4 mps 743 mmHg 77%
    09:00 +20°C° 0.2 mm 4 mps 744 mmHg 73%
    10:00 +20°C° 0.2 mm 4 mps 744 mmHg 69%
    11:00 +21°C° 0.2 mm 4 mps 744 mmHg 65%
    12:00 +22°C° 0.1 mm 4 mps 744 mmHg 62%
    13:00 +23°C° 0.1 mm 4 mps 744 mmHg 60%
    14:00 +24°C° 0.1 mm 3 mps 744 mmHg 57%
    15:00 +24°C° 0.1 mm 3 mps 745 mmHg 60%
    16:00 +24°C° 0.1 mm 2 mps 745 mmHg 63%
    17:00 +24°C° 0.1 mm 2 mps 745 mmHg 67%
    18:00 +22°C° 0.2 mm 1 mps 745 mmHg 73%
    19:00 +20°C° 0.2 mm 1 mps 745 mmHg 80%
    20:00 +19°C° 0.2 mm 1 mps 745 mmHg 87%
    21:00 +18°C° 0.2 mm 1 mps 745 mmHg 90%
    22:00 +18°C° 0.1 mm 1 mps 745 mmHg 92%
    23:00 +16°C° 0.1 mm 1 mps 745 mmHg 95%

    29 May, Wednesday

    Time Temperature Precipitation Wind Pressure Humidity
    00:00 +16°C° 0.1 mm 1 mps 745 mmHg 96%
    01:00 +16°C° 0.1 mm 1 mps 745 mmHg 97%
    02:00 +16°C° 0.1 mm 2 mps 745 mmHg 98%
    03:00 +17°C° 0 mm 2 mps 745 mmHg 97%
    04:00 +17°C° 0 mm 3 mps 744 mmHg 97%
    05:00 +17°C° 0 mm 3 mps 744 mmHg 96%
    06:00 +19°C° 0 mm 3 mps 744 mmHg 92%
    07:00 +20°C° 0 mm 3 mps 744 mmHg 87%
    08:00 +22°C° 0 mm 4 mps 744 mmHg 83%
    09:00 +23°C° 0 mm 4 mps 744 mmHg 73%
    10:00 +26°C° 0 mm 5 mps 744 mmHg 63%
    11:00 +28°C° 0 mm 5 mps 743 mmHg 53%
    12:00 +28°C° 0 mm 5 mps 743 mmHg 51%
    13:00 +29°C° 0 mm 6 mps 743 mmHg 49%
    14:00 +29°C° 0 mm 6 mps 742 mmHg 48%
    15:00 +29°C° 0 mm 5 mps 742 mmHg 50%
    16:00 +28°C° 0 mm 5 mps 742 mmHg 53%
    17:00 +28°C° 0 mm 4 mps 742 mmHg 56%
    18:00 +25°C° 0.7 mm 4 mps 742 mmHg 66%
    19:00 +22°C° 0.7 mm 4 mps 742 mmHg 76%
    20:00 +20°C° 0.7 mm 4 mps 742 mmHg 87%
    21:00 +20°C° 0.1 mm 4 mps 742 mmHg 89%
    22:00 +19°C° 0.1 mm 3 mps 742 mmHg 91%
    23:00 +19°C° 0.1 mm 3 mps 742 mmHg 93%
    Show more